STARLINK-3180, 51137

Orbit data source: Space-Track

STARLINK-3180, 51137 is a payload satellite owned by SpaceX/Seattle (US) in LEO that was launched on Wed, 19 Jan 2022 UTC via an FALCON 9 launch vehicle from the Air Force Eastern Test Range (AFETR). Payload-class satellites include a variety of spacecraft equipped with specific instruments for various scientific and technological missions. These include communications satellites like Starlink; space stations such as the ISS; scientific satellites like the Hubble; Earth observation satellites from companies like Planet Labs, Umbra, and HawkEye 360; GPS; miniature CubeSats for education and research; and military/defense satellites.

Loading next visibility...
Identifier
51137, 2022-005AK
Orbit
LEO
Country
Flag of USUS
Related business
Manufacturer
SpaceX/Seattle
Mission
Operational Commercial Communications
Bus & Motor
STARLINK, Unknown motor
Mass
297 kg wet, ~275 kg dry
Launch date (UTC)
2022-01-19 (4 years ago)
Launch vehicle
FALCON 9
Launch site
Air Force Eastern Test Range (AFETR)
Object type
Payload
Rocket body
Debris
Shape & HBR
Box + 1 Pan, 10.1 m
Radar Cross Section
13.562 m², Large (>1 m²)

Expand to show TLE details & history
Last TLE update: 11 hours ago

TLE from 11 hours ago
0 STARLINK-3180
1 51137U 22005AK  26094.21895412 -.00001452  00000-0 -73174-4 0  9999
2 51137  53.2155 184.5101 0001401 121.4132 238.6997 15.08836459232594
Epoch: 2026-04-04T05:15Z
TLE epoch observation values (Epoch: 2026-04-04T05:15:17.635Z)
Latitude
-0.00007°
Longitude
-86.85531°
Altitude
541.155 km
Speed
7.593 km/s
True Right ascension
12h 18m 02s
True Declination
0° 00' 00"
Sunlit
Object was in full shadow at epoch
Visualization orbit readout
Latitude
Unknown
Longitude
Unknown
Altitude
Unknown
Speed
Unknown
Apparent Right ascension
Unknown
Apparent Declination
Unknown
Sunlit
N/A
Visualization observer readout
Local Sidereal Time
22:28:58
Azimuth
Unknown
Elevation
Unknown
Doppler factor
Unknown
Orbital elements
Apogee altitude
540.969 km
Perigee altitude
539.03 km
Semi-major axis
6,918.136 km
Eccentricity
0.00014
Inclination
53.2155°
RAAN
184.5101°
Arg. of periapsis
121.4132°
True anomaly
238.68598°
Mean anomaly
238.6997°
Eccentric anomaly
238.69284°
Mean motion
3.77189 °/min
Orbital period
95.44 mins
BSTAR
-0.000073174
Loading maneuver chart data...
Computing Atmospheric mass density...
Loading historical data...
Loading historical data...
Loading historical data...
Loading historical data...
Loading historical data...
Loading historical data...
Loading historical data...

Documentation

Showing up to 5 results
|